Time,TemperatureF,DewpointF,PressureIn,WindDirection,WindDirectionDegrees,WindSpeedMPH,WindSpeedGustMPH,Humidity,HourlyPrecipIn,Conditions,Clouds,dailyrainin,SoftwareType,DateUTC
2013-05-14 00:01:00,50.0,31.1,30.12,WNW,292,0.0,0.0,48,0.00,,,0.00,WUHU21623XXSP,2013-05-14 04:01:00,
2013-05-14 00:06:00,49.8,31.4,30.12,WNW,292,0.0,0.0,49,0.00,,,0.00,WUHU21623XXSP,2013-05-14 04:06:00,
2013-05-14 00:11:00,49.8,31.4,30.12,WNW,292,0.0,0.0,49,0.00,,,0.00,WUHU21623XXSP,2013-05-14 04:11:00,
2013-05-14 00:16:00,49.8,31.4,30.11,WNW,292,0.0,0.0,49,0.00,,,0.00,WUHU21623XXSP,2013-05-14 04:16:00,
2013-05-14 00:21:00,49.8,31.4,30.11,WNW,292,0.0,0.0,49,0.00,,,0.00,WUHU21623XXSP,2013-05-14 04:21:00,
2013-05-14 00:26:00,49.6,31.3,30.11,WNW,292,0.0,0.0,49,0.00,,,0.00,WUHU21623XXSP,2013-05-14 04:26:00,
2013-05-14 00:31:00,49.6,31.3,30.11,WNW,292,0.0,0.0,49,0.00,,,0.00,WUHU21623XXSP,2013-05-14 04:31:00,
2013-05-14 00:36:00,49.6,31.3,30.11,NW,315,0.0,0.0,49,0.00,,,0.00,WUHU21623XXSP,2013-05-14 04:36:00,
2013-05-14 00:41:00,49.6,31.3,30.10,WSW,247,0.0,0.0,49,0.00,,,0.00,WUHU21623XXSP,2013-05-14 04:41:00,
2013-05-14 00:46:00,49.6,31.3,30.11,WSW,247,0.0,0.0,49,0.00,,,0.00,WUHU21623XXSP,2013-05-14 04:46:00,
2013-05-14 00:51:00,49.6,31.3,30.11,WSW,247,0.0,0.0,49,0.00,,,0.00,WUHU21623XXSP,2013-05-14 04:51:00,
2013-05-14 00:56:00,49.8,31.4,30.10,WSW,247,0.0,0.0,49,0.00,,,0.00,WUHU21623XXSP,2013-05-14 04:56:00,
2013-05-14 01:01:00,49.8,31.4,30.11,WSW,247,0.0,0.0,49,0.00,,,0.00,WUHU21623XXSP,2013-05-14 05:01:00,
2013-05-14 01:06:00,49.8,31.4,30.10,WSW,247,0.0,0.0,49,0.00,,,0.00,WUHU21623XXSP,2013-05-14 05:06:00,
2013-05-14 01:11:00,49.8,31.4,30.11,SW,225,0.0,0.0,49,0.00,,,0.00,WUHU21623XXSP,2013-05-14 05:11:00,
2013-05-14 01:16:00,49.8,31.4,30.10,SSW,202,0.0,0.0,49,0.00,,,0.00,WUHU21623XXSP,2013-05-14 05:16:00,
2013-05-14 01:21:00,50.2,31.8,30.10,SSW,202,0.0,0.0,49,0.00,,,0.00,WUHU21623XXSP,2013-05-14 05:21:00,
2013-05-14 01:26:00,50.2,32.3,30.10,SW,225,0.0,0.0,50,0.00,,,0.00,WUHU21623XXSP,2013-05-14 05:26:00,
2013-05-14 01:31:00,50.2,32.3,30.10,WSW,247,0.0,0.0,50,0.00,,,0.00,WUHU21623XXSP,2013-05-14 05:31:00,
2013-05-14 01:36:00,50.2,32.8,30.10,South,180,0.0,0.0,51,0.00,,,0.00,WUHU21623XXSP,2013-05-14 05:36:00,
2013-05-14 01:41:00,50.2,32.8,30.10,South,180,4.0,4.0,51,0.00,,,0.00,WUHU21623XXSP,2013-05-14 05:41:00,
2013-05-14 01:46:00,50.4,33.0,30.10,South,180,1.1,4.0,51,0.00,,,0.00,WUHU21623XXSP,2013-05-14 05:46:00,
2013-05-14 01:51:00,50.4,33.0,30.09,SSW,202,0.0,1.1,51,0.00,,,0.00,WUHU21623XXSP,2013-05-14 05:51:00,
2013-05-14 01:56:00,50.4,33.0,30.09,South,180,0.0,1.1,51,0.00,,,0.00,WUHU21623XXSP,2013-05-14 05:56:00,
2013-05-14 02:01:00,50.4,33.0,30.09,South,180,0.0,0.0,51,0.00,,,0.00,WUHU21623XXSP,2013-05-14 06:01:00,
2013-05-14 02:10:00,50.4,33.0,30.09,South,180,0.0,0.0,51,0.00,,,0.00,WUHU21623XXSP,2013-05-14 06:10:00,
2013-05-14 02:15:00,50.4,33.4,30.08,South,180,0.0,0.0,52,0.00,,,0.00,WUHU21623XXSP,2013-05-14 06:15:00,
2013-05-14 02:20:00,50.5,33.6,30.08,South,180,0.0,0.0,52,0.00,,,0.00,WUHU21623XXSP,2013-05-14 06:20:00,
2013-05-14 02:25:00,50.4,33.4,30.08,South,180,0.0,0.0,52,0.00,,,0.00,WUHU21623XXSP,2013-05-14 06:25:00,
2013-05-14 02:30:00,50.4,33.9,30.08,South,180,0.0,0.0,53,0.00,,,0.00,WUHU21623XXSP,2013-05-14 06:30:00,
2013-05-14 02:35:00,50.4,33.9,30.08,South,180,0.0,0.0,53,0.00,,,0.00,WUHU21623XXSP,2013-05-14 06:35:00,
2013-05-14 02:40:00,50.4,33.9,30.08,South,180,0.0,0.0,53,0.00,,,0.00,WUHU21623XXSP,2013-05-14 06:40:00,
2013-05-14 02:45:00,50.2,33.7,30.07,South,180,0.0,0.0,53,0.00,,,0.00,WUHU21623XXSP,2013-05-14 06:45:00,
2013-05-14 02:50:00,50.2,34.1,30.07,South,180,0.0,0.0,54,0.00,,,0.00,WUHU21623XXSP,2013-05-14 06:50:00,
2013-05-14 02:55:00,50.2,34.1,30.07,South,180,0.0,0.0,54,0.00,,,0.00,WUHU21623XXSP,2013-05-14 06:55:00,
2013-05-14 03:00:00,50.2,34.1,30.07,South,180,0.0,0.0,54,0.00,,,0.00,WUHU21623XXSP,2013-05-14 07:00:00,
2013-05-14 03:05:00,50.2,34.1,30.07,South,180,0.0,0.0,54,0.00,,,0.00,WUHU21623XXSP,2013-05-14 07:05:00,
2013-05-14 03:11:00,50.2,34.1,30.07,South,180,0.0,0.0,54,0.00,,,0.00,WUHU21623XXSP,2013-05-14 07:11:00,
2013-05-14 03:16:00,50.0,34.4,30.06,South,180,0.0,0.0,55,0.00,,,0.00,WUHU21623XXSP,2013-05-14 07:16:00,
2013-05-14 03:21:00,50.0,35.3,30.05,South,180,0.0,0.0,57,0.00,,,0.00,WUHU21623XXSP,2013-05-14 07:21:00,
2013-05-14 03:26:00,50.2,35.5,30.06,SW,225,0.0,0.0,57,0.00,,,0.00,WUHU21623XXSP,2013-05-14 07:26:00,
2013-05-14 03:31:00,50.2,35.5,30.06,West,270,0.0,0.0,57,0.00,,,0.00,WUHU21623XXSP,2013-05-14 07:31:00,
2013-05-14 03:36:00,50.2,35.9,30.06,West,270,0.0,0.0,58,0.00,,,0.00,WUHU21623XXSP,2013-05-14 07:36:00,
2013-05-14 03:41:00,50.2,35.9,30.05,West,270,0.0,0.0,58,0.00,,,0.00,WUHU21623XXSP,2013-05-14 07:41:00,
2013-05-14 03:46:00,50.2,35.9,30.05,West,270,0.0,0.0,58,0.00,,,0.00,WUHU21623XXSP,2013-05-14 07:46:00,
2013-05-14 03:51:00,50.2,36.4,30.05,South,180,0.0,0.0,59,0.00,,,0.00,WUHU21623XXSP,2013-05-14 07:51:00,
2013-05-14 03:56:00,50.4,36.6,30.05,South,180,0.0,0.0,59,0.00,,,0.00,WUHU21623XXSP,2013-05-14 07:56:00,
2013-05-14 04:01:00,50.4,36.6,30.04,South,180,0.0,0.0,59,0.00,,,0.00,WUHU21623XXSP,2013-05-14 08:01:00,
2013-05-14 04:06:00,50.4,36.6,30.04,South,180,0.0,0.0,59,0.00,,,0.00,WUHU21623XXSP,2013-05-14 08:06:00,
2013-05-14 04:11:00,50.5,37.2,30.04,South,180,0.0,0.0,60,0.00,,,0.00,WUHU21623XXSP,2013-05-14 08:11:00,
2013-05-14 04:16:00,50.5,37.2,30.03,South,180,0.0,0.0,60,0.00,,,0.00,WUHU21623XXSP,2013-05-14 08:16:00,
2013-05-14 04:21:00,50.5,37.2,30.03,South,180,0.0,0.0,60,0.00,,,0.00,WUHU21623XXSP,2013-05-14 08:21:00,
2013-05-14 04:26:00,50.4,37.4,30.03,South,180,0.0,0.0,61,0.00,,,0.00,WUHU21623XXSP,2013-05-14 08:26:00,
2013-05-14 04:31:00,50.5,37.6,30.03,South,180,0.0,0.0,61,0.00,,,0.00,WUHU21623XXSP,2013-05-14 08:31:00,
2013-05-14 04:36:00,50.5,37.6,30.03,South,180,0.0,0.0,61,0.00,,,0.00,WUHU21623XXSP,2013-05-14 08:36:00,
2013-05-14 04:41:00,50.5,38.0,30.03,South,180,0.0,0.0,62,0.00,,,0.00,WUHU21623XXSP,2013-05-14 08:41:00,
2013-05-14 04:46:00,50.7,38.1,30.02,SSE,157,0.0,0.0,62,0.00,,,0.00,WUHU21623XXSP,2013-05-14 08:46:00,
2013-05-14 04:51:00,50.7,38.1,30.02,WSW,247,1.3,1.3,62,0.00,,,0.00,WUHU21623XXSP,2013-05-14 08:51:00,
2013-05-14 04:56:00,50.9,38.3,30.02,SSE,157,0.0,1.3,62,0.00,,,0.00,WUHU21623XXSP,2013-05-14 08:56:00,
2013-05-14 05:01:00,51.1,38.5,30.02,SW,225,0.0,0.0,62,0.00,,,0.00,WUHU21623XXSP,2013-05-14 09:01:00,
2013-05-14 05:06:00,51.3,38.6,30.02,SW,225,0.0,0.0,62,0.00,,,0.00,WUHU21623XXSP,2013-05-14 09:06:00,
2013-05-14 05:11:00,51.4,38.8,30.02,SW,225,0.0,0.0,62,0.00,,,0.00,WUHU21623XXSP,2013-05-14 09:11:00,
2013-05-14 05:16:00,51.4,38.8,30.02,SSW,202,0.0,0.0,62,0.00,,,0.00,WUHU21623XXSP,2013-05-14 09:16:00,
2013-05-14 05:21:00,51.6,38.9,30.02,SE,135,0.0,0.0,62,0.00,,,0.00,WUHU21623XXSP,2013-05-14 09:21:00,
2013-05-14 05:26:00,51.6,38.5,30.02,West,270,0.0,0.0,61,0.00,,,0.00,WUHU21623XXSP,2013-05-14 09:26:00,
2013-05-14 05:31:00,51.8,38.7,30.02,SE,135,0.0,0.0,61,0.00,,,0.00,WUHU21623XXSP,2013-05-14 09:31:00,
2013-05-14 05:36:00,51.8,38.7,30.02,North,0,0.7,0.7,61,0.00,,,0.00,WUHU21623XXSP,2013-05-14 09:36:00,
2013-05-14 05:41:00,51.8,38.7,30.02,NNW,337,0.0,0.7,61,0.00,,,0.00,WUHU21623XXSP,2013-05-14 09:41:00,
2013-05-14 05:46:00,51.8,38.7,30.02,SSW,202,0.0,0.7,61,0.00,,,0.00,WUHU21623XXSP,2013-05-14 09:46:00,
2013-05-14 05:51:00,52.0,38.9,30.02,West,270,0.0,0.0,61,0.00,,,0.00,WUHU21623XXSP,2013-05-14 09:51:00,
2013-05-14 05:55:00,52.0,38.5,30.02,SSW,202,0.0,0.0,60,0.00,,,0.00,WUHU21623XXSP,2013-05-14 09:55:00,
2013-05-14 06:00:00,52.0,38.5,30.02,ENE,67,0.0,0.0,60,0.00,,,0.00,WUHU21623XXSP,2013-05-14 10:00:00,
2013-05-14 06:05:00,52.0,38.5,30.02,SSE,157,0.0,0.0,60,0.00,,,0.00,WUHU21623XXSP,2013-05-14 10:05:00,
2013-05-14 06:10:00,52.0,38.5,30.03,West,270,0.0,0.9,60,0.00,,,0.00,WUHU21623XXSP,2013-05-14 10:10:00,
2013-05-14 06:15:00,52.2,38.7,30.02,NNE,22,0.0,0.9,60,0.00,,,0.00,WUHU21623XXSP,2013-05-14 10:15:00,
2013-05-14 06:20:00,52.0,38.5,30.02,SSE,157,0.0,0.0,60,0.00,,,0.00,WUHU21623XXSP,2013-05-14 10:20:00,
2013-05-14 06:25:00,52.0,38.9,30.02,SSE,157,0.0,0.0,61,0.00,,,0.00,WUHU21623XXSP,2013-05-14 10:25:00,
2013-05-14 06:30:00,52.0,38.9,30.02,SSE,157,0.0,0.0,61,0.00,,,0.00,WUHU21623XXSP,2013-05-14 10:30:00,
2013-05-14 06:35:00,52.2,38.7,30.02,SE,135,0.0,0.0,60,0.00,,,0.00,WUHU21623XXSP,2013-05-14 10:35:00,
2013-05-14 06:40:00,52.2,38.7,30.02,SE,135,0.0,0.0,60,0.00,,,0.00,WUHU21623XXSP,2013-05-14 10:40:00,
2013-05-14 06:45:00,52.2,38.7,30.02,SW,225,0.0,0.0,60,0.00,,,0.00,WUHU21623XXSP,2013-05-14 10:45:00,
2013-05-14 06:50:00,52.2,38.7,30.02,West,270,0.0,0.0,60,0.00,,,0.00,WUHU21623XXSP,2013-05-14 10:50:00,
2013-05-14 06:55:00,52.2,38.7,30.02,West,270,0.0,0.0,60,0.00,,,0.00,WUHU21623XXSP,2013-05-14 10:55:00,
2013-05-14 07:00:00,52.2,38.7,30.02,North,0,0.0,0.0,60,0.00,,,0.00,WUHU21623XXSP,2013-05-14 11:00:00,
2013-05-14 07:05:00,52.3,38.8,30.02,North,0,0.0,0.0,60,0.00,,,0.00,WUHU21623XXSP,2013-05-14 11:05:00,
2013-05-14 07:10:00,52.2,38.7,30.02,NE,45,0.0,0.0,60,0.00,,,0.00,WUHU21623XXSP,2013-05-14 11:10:00,
2013-05-14 07:15:00,52.3,38.8,30.02,ESE,112,0.0,0.0,60,0.00,,,0.00,WUHU21623XXSP,2013-05-14 11:15:00,
2013-05-14 07:20:00,52.3,38.8,30.02,SE,135,4.3,4.3,60,0.00,,,0.00,WUHU21623XXSP,2013-05-14 11:20:00,
2013-05-14 07:25:00,52.3,38.8,30.02,SSE,157,0.0,4.3,60,0.00,,,0.00,WUHU21623XXSP,2013-05-14 11:25:00,
2013-05-14 07:30:00,52.5,39.0,30.01,South,180,0.0,0.0,60,0.00,,,0.00,WUHU21623XXSP,2013-05-14 11:30:00,
2013-05-14 07:35:00,52.3,38.8,30.01,SSE,157,0.0,0.0,60,0.00,,,0.00,WUHU21623XXSP,2013-05-14 11:35:00,
2013-05-14 07:40:00,52.5,39.0,30.01,South,180,2.5,2.5,60,0.00,,,0.00,WUHU21623XXSP,2013-05-14 11:40:00,
2013-05-14 07:45:00,52.7,39.2,30.00,ESE,112,0.0,2.5,60,0.00,,,0.00,WUHU21623XXSP,2013-05-14 11:45:00,
2013-05-14 07:50:00,52.9,38.9,30.00,SE,135,0.0,2.5,59,0.00,,,0.00,WUHU21623XXSP,2013-05-14 11:50:00,
2013-05-14 07:55:00,52.9,38.9,30.00,SSE,157,0.0,0.0,59,0.00,,,0.00,WUHU21623XXSP,2013-05-14 11:55:00,
2013-05-14 08:00:00,53.2,39.3,30.00,ESE,112,0.0,0.0,59,0.00,,,0.00,WUHU21623XXSP,2013-05-14 12:00:00,
2013-05-14 08:05:00,53.2,38.8,30.00,ESE,112,0.0,0.0,58,0.00,,,0.00,WUHU21623XXSP,2013-05-14 12:05:00,
2013-05-14 08:10:00,53.4,39.5,30.00,SE,135,0.0,0.0,59,0.00,,,0.00,WUHU21623XXSP,2013-05-14 12:10:00,
2013-05-14 08:15:00,53.4,39.5,30.00,South,180,0.0,0.0,59,0.00,,,0.00,WUHU21623XXSP,2013-05-14 12:15:00,
2013-05-14 08:20:00,53.4,39.5,30.00,SSE,157,0.0,0.0,59,0.00,,,0.00,WUHU21623XXSP,2013-05-14 12:20:00,
2013-05-14 08:25:00,53.8,39.8,30.00,NNE,22,0.0,0.0,59,0.00,,,0.00,WUHU21623XXSP,2013-05-14 12:25:00,
2013-05-14 08:30:00,54.1,39.6,30.00,SSE,157,0.0,0.0,58,0.00,,,0.00,WUHU21623XXSP,2013-05-14 12:30:00,
2013-05-14 08:35:00,54.3,39.8,30.00,SSE,157,0.0,0.0,58,0.00,,,0.00,WUHU21623XXSP,2013-05-14 12:35:00,
2013-05-14 08:40:00,54.7,40.1,30.00,SSW,202,0.0,3.4,58,0.00,,,0.00,WUHU21623XXSP,2013-05-14 12:40:00,
2013-05-14 08:45:00,55.2,40.2,30.00,SE,135,4.9,4.9,57,0.00,,,0.00,WUHU21623XXSP,2013-05-14 12:45:00,
2013-05-14 08:50:00,55.4,39.8,30.00,ESE,112,0.0,4.9,56,0.00,,,0.00,WUHU21623XXSP,2013-05-14 12:50:00,
2013-05-14 08:55:00,55.8,40.2,29.99,South,180,0.0,0.0,56,0.00,,,0.00,WUHU21623XXSP,2013-05-14 12:55:00,
2013-05-14 09:00:00,56.3,40.7,29.98,West,270,5.6,5.6,56,0.00,,,0.00,WUHU21623XXSP,2013-05-14 13:00:00,
2013-05-14 09:05:00,56.5,40.5,29.98,WSW,247,5.8,5.8,55,0.00,,,0.00,WUHU21623XXSP,2013-05-14 13:05:00,
2013-05-14 09:10:00,56.8,40.8,29.98,East,90,0.0,5.8,55,0.00,,,0.00,WUHU21623XXSP,2013-05-14 13:10:00,
2013-05-14 09:15:00,57.4,41.3,29.98,NW,308,1.4,5.8,55,0.00,,,0.00,WUHU21623XXSP,2013-05-14 13:15:00,
2013-05-14 09:20:00,57.7,41.7,29.98,WSW,246,5.1,8.3,55,0.00,,,0.00,WUHU21623XXSP,2013-05-14 13:20:00,
2013-05-14 09:25:00,58.1,42.0,29.97,WNW,292,2.9,8.3,55,0.00,,,0.00,WUHU21623XXSP,2013-05-14 13:25:00,
2013-05-14 09:30:00,58.3,41.7,29.97,West,270,3.6,7.4,54,0.00,,,0.00,WUHU21623XXSP,2013-05-14 13:30:00,
2013-05-14 09:35:00,58.8,41.7,29.97,SE,135,5.4,7.4,53,0.00,,,0.00,WUHU21623XXSP,2013-05-14 13:35:00,
2013-05-14 09:40:00,59.2,42.0,29.97,WSW,247,6.7,6.7,53,0.00,,,0.00,WUHU21623XXSP,2013-05-14 13:40:00,
2013-05-14 09:45:00,59.9,42.7,29.96,SW,225,7.6,7.6,53,0.00,,,0.00,WUHU21623XXSP,2013-05-14 13:45:00,
2013-05-14 09:50:00,60.1,42.4,29.95,NW,315,0.0,7.6,52,0.00,,,0.00,WUHU21623XXSP,2013-05-14 13:50:00,
2013-05-14 09:55:00,60.3,42.5,29.95,WSW,247,3.8,7.6,52,0.00,,,0.00,WUHU21623XXSP,2013-05-14 13:55:00,
2013-05-14 10:00:00,60.4,42.7,29.95,WSW,247,6.5,6.5,52,0.00,,,0.00,WUHU21623XXSP,2013-05-14 14:00:00,
2013-05-14 10:05:00,61.0,43.2,29.94,West,270,2.0,6.5,52,0.00,,,0.00,WUHU21623XXSP,2013-05-14 14:05:00,
2013-05-14 10:10:00,61.3,43.5,29.94,NW,315,2.0,6.5,52,0.00,,,0.00,WUHU21623XXSP,2013-05-14 14:10:00,
2013-05-14 10:15:00,61.9,43.5,29.93,SSW,206,6.8,7.2,51,0.00,,,0.00,WUHU21623XXSP,2013-05-14 14:15:00,
2013-05-14 10:20:00,62.2,44.3,29.93,West,270,5.4,7.2,52,0.00,,,0.00,WUHU21623XXSP,2013-05-14 14:20:00,
2013-05-14 10:25:00,62.6,44.7,29.93,SE,135,3.8,5.4,52,0.00,,,0.00,WUHU21623XXSP,2013-05-14 14:25:00,
2013-05-14 10:30:00,63.1,45.2,29.92,West,264,6.6,7.2,52,0.00,,,0.00,WUHU21623XXSP,2013-05-14 14:30:00,
2013-05-14 10:35:00,63.7,45.6,29.92,WSW,247,0.9,7.2,52,0.00,,,0.00,WUHU21623XXSP,2013-05-14 14:35:00,
2013-05-14 10:40:00,64.0,46.0,29.92,South,180,4.7,4.7,52,0.00,,,0.00,WUHU21623XXSP,2013-05-14 14:40:00,
2013-05-14 10:45:00,64.4,45.8,29.92,NW,315,5.4,5.4,51,0.00,,,0.00,WUHU21623XXSP,2013-05-14 14:45:00,
2013-05-14 10:50:00,64.6,46.0,29.92,South,184,1.2,5.4,51,0.00,,,0.00,WUHU21623XXSP,2013-05-14 14:50:00,
2013-05-14 10:55:00,64.6,46.0,29.92,WSW,247,7.6,7.6,51,0.00,,,0.00,WUHU21623XXSP,2013-05-14 14:55:00,
2013-05-14 11:00:00,64.8,46.3,29.91,SE,135,0.0,7.6,51,0.00,,,0.00,WUHU21623XXSP,2013-05-14 15:00:00,
2013-05-14 11:05:00,65.2,47.2,29.91,WNW,292,6.7,7.6,52,0.00,,,0.00,WUHU21623XXSP,2013-05-14 15:05:00,
2013-05-14 11:10:00,65.2,47.2,29.90,NNE,22,0.0,6.7,52,0.00,,,0.00,WUHU21623XXSP,2013-05-14 15:10:00,
2013-05-14 11:15:00,65.4,46.9,29.90,West,270,4.3,6.7,51,0.00,,,0.00,WUHU21623XXSP,2013-05-14 15:15:00,
2013-05-14 11:20:00,65.5,46.9,29.90,SSE,157,0.0,4.3,51,0.00,,,0.00,WUHU21623XXSP,2013-05-14 15:20:00,
2013-05-14 11:25:00,65.3,46.3,29.90,WSW,242,4.7,7.8,50,0.00,,,0.00,WUHU21623XXSP,2013-05-14 15:25:00,
2013-05-14 11:30:00,65.5,46.9,29.90,ESE,112,0.7,7.8,51,0.00,,,0.00,WUHU21623XXSP,2013-05-14 15:30:00,
2013-05-14 11:35:00,65.4,46.3,29.90,SW,225,4.3,4.5,50,0.00,,,0.00,WUHU21623XXSP,2013-05-14 15:35:00,
2013-05-14 11:40:00,65.2,46.1,29.89,WNW,292,2.2,4.3,50,0.00,,,0.00,WUHU21623XXSP,2013-05-14 15:40:00,
2013-05-14 11:45:00,65.1,46.0,29.89,NE,45,2.9,4.3,50,0.00,,,0.00,WUHU21623XXSP,2013-05-14 15:45:00,
2013-05-14 11:50:00,65.4,46.9,29.89,West,270,5.4,5.4,51,0.00,,,0.00,WUHU21623XXSP,2013-05-14 15:50:00,
2013-05-14 11:55:00,65.4,46.3,29.88,SW,225,6.0,6.0,50,0.00,,,0.00,WUHU21623XXSP,2013-05-14 15:55:00,
2013-05-14 12:00:00,65.9,46.7,29.89,SE,135,6.0,6.0,50,0.00,,,0.00,WUHU21623XXSP,2013-05-14 16:00:00,
2013-05-14 12:05:00,65.8,46.7,29.89,WSW,247,7.4,7.4,50,0.00,,,0.00,WUHU21623XXSP,2013-05-14 16:05:00,
2013-05-14 12:10:00,65.8,46.6,29.88,SW,225,10.1,10.1,50,0.00,,,0.00,WUHU21623XXSP,2013-05-14 16:10:00,
2013-05-14 12:15:00,66.0,46.9,29.88,ESE,112,1.3,10.1,50,0.00,,,0.00,WUHU21623XXSP,2013-05-14 16:15:00,
2013-05-14 12:20:00,66.0,46.8,29.87,SW,228,1.4,10.1,50,0.00,,,0.00,WUHU21623XXSP,2013-05-14 16:20:00,
2013-05-14 12:25:00,66.1,47.0,29.87,WNW,292,1.3,1.6,50,0.00,,,0.00,WUHU21623XXSP,2013-05-14 16:25:00,
2013-05-14 12:30:00,66.2,47.1,29.87,NW,315,2.9,2.9,50,0.00,,,0.00,WUHU21623XXSP,2013-05-14 16:30:00,
2013-05-14 12:35:00,66.4,47.2,29.87,NE,54,5.4,6.9,50,0.00,,,0.00,WUHU21623XXSP,2013-05-14 16:35:00,
2013-05-14 12:40:00,66.6,47.4,29.86,SW,225,3.6,6.9,50,0.00,,,0.00,WUHU21623XXSP,2013-05-14 16:40:00,
2013-05-14 12:45:00,66.7,47.0,29.86,West,270,6.5,6.5,49,0.00,,,0.00,WUHU21623XXSP,2013-05-14 16:45:00,
2013-05-14 12:50:00,66.9,47.2,29.85,SSE,157,3.8,6.5,49,0.00,,,0.00,WUHU21623XXSP,2013-05-14 16:50:00,
2013-05-14 12:55:00,67.1,47.3,29.85,WSW,256,5.2,13.4,49,0.00,,,0.00,WUHU21623XXSP,2013-05-14 16:55:00,
2013-05-14 13:00:00,67.3,47.5,29.85,NW,308,5.0,13.4,49,0.00,,,0.00,WUHU21623XXSP,2013-05-14 17:00:00,
2013-05-14 13:05:00,67.6,48.3,29.85,SW,225,8.1,8.1,50,0.00,,,0.00,WUHU21623XXSP,2013-05-14 17:05:00,
2013-05-14 13:10:00,67.4,48.2,29.85,WSW,247,2.5,8.1,50,0.00,,,0.00,WUHU21623XXSP,2013-05-14 17:10:00,
2013-05-14 13:15:00,68.2,48.4,29.85,SW,225,4.9,4.9,49,0.00,,,0.00,WUHU21623XXSP,2013-05-14 17:15:00,
2013-05-14 13:20:00,68.4,48.5,29.84,SW,225,2.5,4.9,49,0.00,,,0.00,WUHU21623XXSP,2013-05-14 17:20:00,
2013-05-14 13:25:00,68.7,48.8,29.84,WSW,247,4.9,4.9,49,0.00,,,0.00,WUHU21623XXSP,2013-05-14 17:25:00,
2013-05-14 13:30:00,68.9,49.0,29.85,WSW,247,11.4,11.4,49,0.00,,,0.00,WUHU21623XXSP,2013-05-14 17:30:00,
2013-05-14 13:35:00,69.5,48.9,29.84,WSW,253,5.9,11.4,48,0.00,,,0.00,WUHU21623XXSP,2013-05-14 17:35:00,
2013-05-14 13:40:00,69.4,48.9,29.84,South,180,5.8,11.4,48,0.00,,,0.00,WUHU21623XXSP,2013-05-14 17:40:00,
2013-05-14 13:45:00,69.9,48.7,29.84,NNW,337,4.0,5.8,47,0.00,,,0.00,WUHU21623XXSP,2013-05-14 17:45:00,
2013-05-14 13:50:00,69.8,49.3,29.84,WSW,247,5.1,5.8,48,0.00,,,0.00,WUHU21623XXSP,2013-05-14 17:50:00,
2013-05-14 13:55:00,70.0,48.8,29.84,NW,315,4.0,7.4,47,0.00,,,0.00,WUHU21623XXSP,2013-05-14 17:55:00,
2013-05-14 14:00:00,70.4,49.2,29.84,SW,225,0.0,7.4,47,0.00,,,0.00,WUHU21623XXSP,2013-05-14 18:00:00,
2013-05-14 14:05:00,70.5,49.9,29.84,NW,315,0.0,3.8,48,0.00,,,0.00,WUHU21623XXSP,2013-05-14 18:05:00,
2013-05-14 14:10:00,70.5,49.9,29.84,North,0,6.9,6.9,48,0.00,,,0.00,WUHU21623XXSP,2013-05-14 18:10:00,
2013-05-14 14:15:00,71.0,50.3,29.84,SSW,202,2.9,6.9,48,0.00,,,0.00,WUHU21623XXSP,2013-05-14 18:15:00,
2013-05-14 14:20:00,71.2,50.5,29.83,West,259,3.5,6.9,48,0.00,,,0.00,WUHU21623XXSP,2013-05-14 18:20:00,
2013-05-14 14:25:00,71.6,50.9,29.83,West,270,2.5,4.0,48,0.00,,,0.00,WUHU21623XXSP,2013-05-14 18:25:00,
2013-05-14 14:30:00,71.8,51.7,29.83,West,270,6.5,6.5,49,0.00,,,0.00,WUHU21623XXSP,2013-05-14 18:30:00,
2013-05-14 14:35:00,71.9,51.2,29.83,NW,315,3.3,6.5,48,0.00,,,0.00,WUHU21623XXSP,2013-05-14 18:35:00,
2013-05-14 14:40:00,72.6,51.8,29.82,North,0,4.9,6.5,48,0.00,,,0.00,WUHU21623XXSP,2013-05-14 18:40:00,
2013-05-14 14:45:00,73.0,52.2,29.82,NW,315,8.5,8.5,48,0.00,,,0.00,WUHU21623XXSP,2013-05-14 18:45:00,
2013-05-14 14:50:00,73.2,52.3,29.82,West,270,9.6,9.6,48,0.00,,,0.00,WUHU21623XXSP,2013-05-14 18:50:00,
2013-05-14 14:55:00,73.5,52.1,29.82,West,270,1.8,9.6,47,0.00,,,0.00,WUHU21623XXSP,2013-05-14 18:55:00,
2013-05-14 15:00:00,73.9,53.0,29.82,North,0,2.7,9.6,48,0.00,,,0.00,WUHU21623XXSP,2013-05-14 19:00:00,
2013-05-14 15:05:00,74.0,53.1,29.82,North,0,1.3,2.7,48,0.00,,,0.00,WUHU21623XXSP,2013-05-14 19:05:00,
2013-05-14 15:10:00,74.2,52.7,29.82,NW,315,5.1,5.1,47,0.00,,,0.00,WUHU21623XXSP,2013-05-14 19:10:00,
2013-05-14 15:15:00,74.7,53.7,29.81,South,180,4.0,5.1,48,0.00,,,0.00,WUHU21623XXSP,2013-05-14 19:15:00,
2013-05-14 15:20:00,75.1,54.1,29.81,NNW,337,2.7,5.1,48,0.00,,,0.00,WUHU21623XXSP,2013-05-14 19:20:00,
2013-05-14 15:25:00,75.3,53.7,29.81,West,270,6.0,6.0,47,0.00,,,0.00,WUHU21623XXSP,2013-05-14 19:25:00,
2013-05-14 15:30:00,75.5,54.5,29.81,SW,227,7.8,8.7,48,0.00,,,0.00,WUHU21623XXSP,2013-05-14 19:30:00,
2013-05-14 15:35:00,75.7,54.1,29.81,ESE,112,1.6,8.7,47,0.00,,,0.00,WUHU21623XXSP,2013-05-14 19:35:00,
2013-05-14 15:40:00,76.3,55.2,29.81,WSW,247,2.7,3.4,48,0.00,,,0.00,WUHU21623XXSP,2013-05-14 19:40:00,
2013-05-14 15:45:00,76.6,55.5,29.80,North,0,4.7,4.7,48,0.00,,,0.00,WUHU21623XXSP,2013-05-14 19:45:00,
2013-05-14 15:50:00,77.0,55.9,29.80,North,0,4.7,4.7,48,0.00,,,0.00,WUHU21623XXSP,2013-05-14 19:50:00,
2013-05-14 15:55:00,77.4,55.6,29.80,SSW,205,4.0,7.2,47,0.00,,,0.00,WUHU21623XXSP,2013-05-14 19:55:00,
2013-05-14 16:00:00,77.6,55.8,29.80,WNW,292,4.3,7.2,47,0.00,,,0.00,WUHU21623XXSP,2013-05-14 20:00:00,
2013-05-14 16:05:00,77.9,56.1,29.80,WNW,292,4.3,4.3,47,0.00,,,0.00,WUHU21623XXSP,2013-05-14 20:05:00,
2013-05-14 16:10:00,78.4,57.1,29.80,West,270,0.7,4.3,48,0.00,,,0.00,WUHU21623XXSP,2013-05-14 20:10:00,
2013-05-14 16:15:00,78.6,57.4,29.80,NW,315,2.5,4.3,48,0.00,,,0.00,WUHU21623XXSP,2013-05-14 20:15:00,
2013-05-14 16:20:00,79.1,57.8,29.80,NW,315,5.4,5.4,48,0.00,,,0.00,WUHU21623XXSP,2013-05-14 20:20:00,
2013-05-14 16:25:00,79.6,57.7,29.81,WNW,301,1.9,6.5,47,0.00,,,0.00,WUHU21623XXSP,2013-05-14 20:25:00,
2013-05-14 16:30:00,80.2,58.2,29.81,WNW,292,4.0,6.5,47,0.00,,,0.00,WUHU21623XXSP,2013-05-14 20:30:00,
2013-05-14 16:35:00,80.5,58.5,29.81,NNE,22,0.9,4.0,47,0.00,,,0.00,WUHU21623XXSP,2013-05-14 20:35:00,
2013-05-14 16:40:00,81.0,58.9,29.80,NNW,342,0.8,4.0,47,0.00,,,0.00,WUHU21623XXSP,2013-05-14 20:40:00,
2013-05-14 16:45:00,81.3,59.2,29.81,NW,315,0.7,1.3,47,0.00,,,0.00,WUHU21623XXSP,2013-05-14 20:45:00,
2013-05-14 16:50:00,81.6,59.5,29.81,West,278,4.3,6.9,47,0.00,,,0.00,WUHU21623XXSP,2013-05-14 20:50:00,
2013-05-14 16:55:00,82.3,60.1,29.81,NW,317,3.0,6.9,47,0.00,,,0.00,WUHU21623XXSP,2013-05-14 20:55:00,
2013-05-14 17:00:00,82.6,60.2,29.81,NNW,336,3.3,4.0,47,0.00,,,0.00,WUHU21623XXSP,2013-05-14 21:00:00,
2013-05-14 17:05:00,82.6,60.2,29.81,NW,315,6.7,6.7,47,0.00,,,0.00,WUHU21623XXSP,2013-05-14 21:05:00,
2013-05-14 17:10:00,82.6,60.2,29.81,NW,315,6.7,6.7,47,0.00,,,0.00,WUHU21623XXSP,2013-05-14 21:10:00,
2013-05-14 17:15:00,82.6,60.2,29.81,SW,225,1.8,6.7,47,0.00,,,0.00,WUHU21623XXSP,2013-05-14 21:15:00,
2013-05-14 17:20:00,82.6,60.8,29.81,NNW,337,1.3,6.7,48,0.00,,,0.00,WUHU21623XXSP,2013-05-14 21:20:00,
2013-05-14 17:25:00,82.6,60.8,29.81,North,0,4.3,4.3,48,0.00,,,0.00,WUHU21623XXSP,2013-05-14 21:25:00,
2013-05-14 17:30:00,82.8,60.4,29.81,NNW,337,4.7,4.7,47,0.00,,,0.00,WUHU21623XXSP,2013-05-14 21:30:00,
2013-05-14 17:35:00,82.8,60.4,29.81,SW,225,4.9,4.9,47,0.00,,,0.00,WUHU21623XXSP,2013-05-14 21:35:00,
2013-05-14 17:40:00,82.8,60.4,29.81,NNE,22,0.0,4.9,47,0.00,,,0.00,WUHU21623XXSP,2013-05-14 21:40:00,
2013-05-14 17:45:00,82.9,60.6,29.81,NW,315,1.3,4.9,47,0.00,,,0.00,WUHU21623XXSP,2013-05-14 21:45:00,
2013-05-14 17:50:00,82.9,60.6,29.81,WSW,239,1.6,2.5,47,0.00,,,0.00,WUHU21623XXSP,2013-05-14 21:50:00,
2013-05-14 17:55:00,82.9,60.6,29.81,West,270,0.9,2.5,47,0.00,,,0.00,WUHU21623XXSP,2013-05-14 21:55:00,
2013-05-14 18:00:00,82.9,60.6,29.81,SSW,212,6.7,6.9,47,0.00,,,0.00,WUHU21623XXSP,2013-05-14 22:00:00,
2013-05-14 18:05:00,83.1,60.7,29.81,SSW,210,4.9,6.9,47,0.00,,,0.00,WUHU21623XXSP,2013-05-14 22:05:00,
2013-05-14 18:10:00,83.1,60.7,29.81,ENE,67,1.1,5.6,47,0.00,,,0.00,WUHU21623XXSP,2013-05-14 22:10:00,
2013-05-14 18:15:00,83.3,60.9,29.81,NNW,337,0.7,7.8,47,0.00,,,0.00,WUHU21623XXSP,2013-05-14 22:15:00,
2013-05-14 18:20:00,83.3,60.9,29.81,NNW,328,5.1,7.8,47,0.00,,,0.00,WUHU21623XXSP,2013-05-14 22:20:00,
2013-05-14 18:25:00,83.3,60.9,29.81,NW,315,7.4,7.4,47,0.00,,,0.00,WUHU21623XXSP,2013-05-14 22:25:00,
2013-05-14 18:30:00,83.5,61.7,29.81,SSW,202,2.0,7.4,48,0.00,,,0.00,WUHU21623XXSP,2013-05-14 22:30:00,
2013-05-14 18:35:00,83.5,61.7,29.81,NNW,337,7.6,7.6,48,0.00,,,0.00,WUHU21623XXSP,2013-05-14 22:35:00,
2013-05-14 18:40:00,83.5,61.7,29.81,North,357,2.1,7.6,48,0.00,,,0.00,WUHU21623XXSP,2013-05-14 22:40:00,
2013-05-14 18:45:00,83.3,60.9,29.81,NNW,337,1.6,7.6,47,0.00,,,0.00,WUHU21623XXSP,2013-05-14 22:45:00,
2013-05-14 18:50:00,83.3,61.5,29.80,NW,315,4.9,4.9,48,0.00,,,0.00,WUHU21623XXSP,2013-05-14 22:50:00,
2013-05-14 18:55:00,83.1,61.4,29.80,SSW,202,1.1,4.9,48,0.00,,,0.00,WUHU21623XXSP,2013-05-14 22:55:00,
2013-05-14 19:00:00,83.1,61.4,29.81,SW,225,3.4,5.8,48,0.00,,,0.00,WUHU21623XXSP,2013-05-14 23:00:00,
2013-05-14 19:05:00,83.1,61.4,29.80,SW,225,2.0,5.8,48,0.00,,,0.00,WUHU21623XXSP,2013-05-14 23:05:00,
2013-05-14 19:10:00,82.9,61.2,29.81,ESE,112,0.0,3.4,48,0.00,,,0.00,WUHU21623XXSP,2013-05-14 23:10:00,
2013-05-14 19:15:00,82.9,61.2,29.80,SW,227,9.1,11.4,48,0.00,,,0.00,WUHU21623XXSP,2013-05-14 23:15:00,
2013-05-14 19:20:00,82.9,61.2,29.80,NNW,337,1.6,11.4,48,0.00,,,0.00,WUHU21623XXSP,2013-05-14 23:20:00,
2013-05-14 19:25:00,82.8,61.0,29.80,West,276,1.4,2.0,48,0.00,,,0.00,WUHU21623XXSP,2013-05-14 23:25:00,
2013-05-14 19:30:00,82.6,61.4,29.80,West,270,0.0,2.0,49,0.00,,,0.00,WUHU21623XXSP,2013-05-14 23:30:00,
2013-05-14 19:35:00,82.4,61.3,29.80,SSW,202,5.6,5.6,49,0.00,,,0.00,WUHU21623XXSP,2013-05-14 23:35:00,
2013-05-14 19:40:00,82.2,61.1,29.80,SW,225,2.0,5.6,49,0.00,,,0.00,WUHU21623XXSP,2013-05-14 23:40:00,
2013-05-14 19:45:00,82.2,61.1,29.80,West,270,2.7,5.6,49,0.00,,,0.00,WUHU21623XXSP,2013-05-14 23:45:00,
2013-05-14 19:50:00,82.0,60.9,29.80,WSW,247,0.0,2.7,49,0.00,,,0.00,WUHU21623XXSP,2013-05-14 23:50:00,
2013-05-14 19:55:00,81.9,60.8,29.81,WSW,247,0.0,2.7,49,0.00,,,0.00,WUHU21623XXSP,2013-05-14 23:55:00,
2013-05-14 20:00:00,81.7,61.2,29.81,SW,225,0.0,0.0,50,0.00,,,0.00,WUHU21623XXSP,2013-05-15 00:00:00,
2013-05-14 20:05:00,81.7,61.2,29.80,SW,225,0.0,0.0,50,0.00,,,0.00,WUHU21623XXSP,2013-05-15 00:05:00,
2013-05-14 20:10:00,81.3,60.9,29.80,WSW,247,0.0,0.0,50,0.00,,,0.00,WUHU21623XXSP,2013-05-15 00:10:00,
2013-05-14 20:15:00,80.8,60.9,29.80,West,270,0.0,0.0,51,0.00,,,0.00,WUHU21623XXSP,2013-05-15 00:15:00,
2013-05-14 20:20:00,80.8,60.9,29.80,ESE,112,0.0,0.0,51,0.00,,,0.00,WUHU21623XXSP,2013-05-15 00:20:00,
2013-05-14 20:25:00,80.4,60.6,29.80,SW,225,2.7,2.7,51,0.00,,,0.00,WUHU21623XXSP,2013-05-15 00:25:00,
2013-05-14 20:30:00,80.2,60.5,29.81,WSW,247,0.0,2.7,51,0.00,,,0.00,WUHU21623XXSP,2013-05-15 00:30:00,
2013-05-14 20:35:00,79.9,60.7,29.80,North,0,0.0,0.0,52,0.00,,,0.00,WUHU21623XXSP,2013-05-15 00:35:00,
2013-05-14 20:40:00,79.7,60.5,29.79,South,180,0.0,0.0,52,0.00,,,0.00,WUHU21623XXSP,2013-05-15 00:40:00,
2013-05-14 20:45:00,79.3,60.2,29.79,WSW,247,0.0,0.0,52,0.00,,,0.00,WUHU21623XXSP,2013-05-15 00:45:00,
2013-05-14 20:50:00,79.0,60.4,29.79,NNW,337,0.0,0.0,53,0.00,,,0.00,WUHU21623XXSP,2013-05-15 00:50:00,
2013-05-14 20:55:00,78.8,60.2,29.79,South,180,1.1,1.1,53,0.00,,,0.00,WUHU21623XXSP,2013-05-15 00:55:00,
2013-05-14 21:00:00,78.4,60.4,29.78,SW,225,0.0,1.1,54,0.00,,,0.00,WUHU21623XXSP,2013-05-15 01:00:00,
2013-05-14 21:05:00,78.1,60.0,29.79,WSW,247,0.0,1.1,54,0.00,,,0.00,WUHU21623XXSP,2013-05-15 01:05:00,
2013-05-14 21:10:00,77.9,60.4,29.79,ESE,112,0.7,0.7,55,0.00,,,0.00,WUHU21623XXSP,2013-05-15 01:10:00,
2013-05-14 21:15:00,77.5,60.0,29.79,SW,225,0.9,0.9,55,0.00,,,0.00,WUHU21623XXSP,2013-05-15 01:15:00,
2013-05-14 21:20:00,77.4,60.4,29.79,SW,225,0.2,0.9,56,0.00,,,0.00,WUHU21623XXSP,2013-05-15 01:20:00,
2013-05-14 21:25:00,77.2,60.2,29.79,WSW,247,5.8,5.8,56,0.00,,,0.00,WUHU21623XXSP,2013-05-15 01:25:00,
2013-05-14 21:30:00,76.8,59.9,29.79,WSW,247,0.0,5.8,56,0.00,,,0.00,WUHU21623XXSP,2013-05-15 01:30:00,
2013-05-14 21:35:00,76.8,60.4,29.79,SW,225,2.9,5.8,57,0.00,,,0.00,WUHU21623XXSP,2013-05-15 01:35:00,
2013-05-14 21:40:00,76.6,60.2,29.79,SW,225,4.3,4.3,57,0.00,,,0.00,WUHU21623XXSP,2013-05-15 01:40:00,
2013-05-14 21:45:00,76.5,60.1,29.79,SSE,157,2.9,4.3,57,0.00,,,0.00,WUHU21623XXSP,2013-05-15 01:45:00,
2013-05-14 21:50:00,76.3,59.9,29.79,West,270,1.8,3.4,57,0.00,,,0.00,WUHU21623XXSP,2013-05-15 01:50:00,
2013-05-14 21:55:00,76.3,59.9,29.79,West,270,0.0,1.8,57,0.00,,,0.00,WUHU21623XXSP,2013-05-15 01:55:00,
2013-05-14 22:00:00,75.9,60.1,29.80,WNW,292,0.0,6.7,58,0.00,,,0.00,WUHU21623XXSP,2013-05-15 02:00:00,
2013-05-14 22:05:00,75.9,60.1,29.80,SW,225,0.0,6.7,58,0.00,,,0.00,WUHU21623XXSP,2013-05-15 02:05:00,
2013-05-14 22:10:00,75.7,59.9,29.80,South,180,0.0,0.0,58,0.00,,,0.00,WUHU21623XXSP,2013-05-15 02:10:00,
2013-05-14 22:15:00,75.6,59.8,29.80,WSW,247,0.0,0.0,58,0.00,,,0.00,WUHU21623XXSP,2013-05-15 02:15:00,
2013-05-14 22:20:00,75.4,59.6,29.80,SW,225,0.0,0.0,58,0.00,,,0.00,WUHU21623XXSP,2013-05-15 02:20:00,
2013-05-14 22:25:00,75.2,59.9,29.80,West,270,0.4,0.4,59,0.00,,,0.00,WUHU21623XXSP,2013-05-15 02:25:00,
2013-05-14 22:30:00,75.0,59.8,29.81,WSW,247,0.9,2.0,59,0.00,,,0.00,WUHU21623XXSP,2013-05-15 02:30:00,
2013-05-14 22:35:00,74.8,59.6,29.80,WSW,247,3.1,3.1,59,0.00,,,0.00,WUHU21623XXSP,2013-05-15 02:35:00,
2013-05-14 22:40:00,74.8,59.6,29.80,SW,225,0.0,3.1,59,0.00,,,0.00,WUHU21623XXSP,2013-05-15 02:40:00,
2013-05-14 22:45:00,74.5,59.7,29.80,West,270,0.0,0.0,60,0.00,,,0.00,WUHU21623XXSP,2013-05-15 02:45:00,
2013-05-14 22:50:00,74.5,59.7,29.81,West,270,0.0,0.0,60,0.00,,,0.00,WUHU21623XXSP,2013-05-15 02:50:00,
2013-05-14 22:55:00,74.3,59.5,29.80,WSW,247,0.0,0.0,60,0.00,,,0.00,WUHU21623XXSP,2013-05-15 02:55:00,
2013-05-14 23:00:00,74.1,59.4,29.80,SSW,202,2.5,2.5,60,0.00,,,0.00,WUHU21623XXSP,2013-05-15 03:00:00,
2013-05-14 23:05:00,74.1,59.4,29.80,ESE,112,1.1,2.5,60,0.00,,,0.00,WUHU21623XXSP,2013-05-15 03:05:00,
2013-05-14 23:10:00,73.9,59.6,29.80,SSW,202,4.9,4.9,61,0.00,,,0.00,WUHU21623XXSP,2013-05-15 03:10:00,
2013-05-14 23:15:00,73.8,59.4,29.80,SSE,157,0.7,4.9,61,0.00,,,0.00,WUHU21623XXSP,2013-05-15 03:15:00,
2013-05-14 23:20:00,73.6,59.3,29.80,WSW,247,0.0,0.7,61,0.00,,,0.00,WUHU21623XXSP,2013-05-15 03:20:00,
2013-05-14 23:25:00,73.6,59.3,29.80,SSE,157,0.0,1.1,61,0.00,,,0.00,WUHU21623XXSP,2013-05-15 03:25:00,
2013-05-14 23:30:00,73.4,59.5,29.80,WSW,247,2.2,2.2,62,0.00,,,0.00,WUHU21623XXSP,2013-05-15 03:30:00,
2013-05-14 23:35:00,73.2,59.4,29.80,WSW,247,1.6,2.2,62,0.00,,,0.00,WUHU21623XXSP,2013-05-15 03:35:00,
2013-05-14 23:40:00,73.2,59.4,29.80,SW,225,0.0,2.2,62,0.00,,,0.00,WUHU21623XXSP,2013-05-15 03:40:00,
2013-05-14 23:45:00,73.2,59.4,29.80,WSW,247,2.7,2.7,62,0.00,,,0.00,WUHU21623XXSP,2013-05-15 03:45:00,
2013-05-14 23:50:00,73.2,59.4,29.79,WSW,247,0.0,2.7,62,0.00,,,0.00,WUHU21623XXSP,2013-05-15 03:50:00,
2013-05-14 23:55:00,73.2,59.4,29.79,WSW,247,1.1,1.1,62,0.00,,,0.00,WUHU21623XXSP,2013-05-15 03:55:00,